[[{"header":{"parameterUnit":"m.s-1","parameterCategory":1,"la1":30.2991,"la2":30.254,"lo1":-89.0895,"lo2":-89.0444,"dy":0.0017,"dx":0.0017,"nx":28,"ny":28,"refTime":"2023-07-18T21:00:00:Z","depth":0,"parameterNumber":2,"parameterNumberName":"U-component_of_WINDS"},"data":[0,0,0,0,0,0,0,0,0,0,0,0,0,0,0,0,0,0,0,0,0,0,0,0,0,0,0,0,0,0,0,0,0,0,0,0,0,0,0,0,0,0,0,0,0,0,0,0,0,0,0,0,0,0,0,0,0,0,1.1864,1.1864,0,1.1864,1.1864,1.1864,1.1843,1.1842,1.1842,1.1841,1.1844,1.1845,1.1845,0,0,0,0,0,0,0,0,0,0,0,0,0,1.1846,1.1846,1.1864,1.1864,1.1864,1.1864,1.1864,1.1864,1.1843,1.1842,1.1841,1.1841,1.1844,1.1845,1.1845,0,0,0,0,0,0,0,0,0,0,0,0,0,1.1851,1.1846,1.1864,1.1853,1.1852,1.1864,1.1864,1.1864,1.1843,1.1842,1.1841,1.184,1.1844,1.1845,1.1846,1.1869,0,0,1.1848,1.1849,0,0,0,0,0,0,0,0,1.185,1.1851,1.1854,1.1854,1.1853,1.1853,1.1859,1.1866,1.1843,1.1846,1.1841,1.184,1.1848,1.1848,1.1851,1.1869,1.1869,1.1849,1.1849,1.185,1.185,0,0,0,0,0,0,0,1.185,1.1851,1.1864,1.1855,1.1853,1.1849,1.1849,1.186,1.1852,1.1846,1.1845,1.1845,1.1847,1.185,1.185,1.1869,1.1849,1.1849,1.185,1.185,1.1909,1.191,0,0,0,0,0,0,1.1851,1.1851,1.1864,1.1864,1.1849,1.185,1.185,1.1854,1.1852,1.1851,1.1846,1.1844,1.1849,1.1849,1.1851,1.1879,1.185,1.185,1.1851,1.1908,1.1909,1.191,0,0,0,0,0,0,1.1851,1.1852,1.1864,1.1857,1.1858,1.1851,1.1856,1.1854,1.1856,1.1851,1.185,1.185,1.1848,1.1849,1.1865,1.1879,1.1851,1.1852,1.1907,1.1908,1.191,1.1936,0,0,0,0,0,0,1.185,1.1852,1.1861,1.1857,1.1859,1.1878,1.1857,1.1855,1.1858,1.1856,1.1855,1.1854,1.1847,1.1864,1.1866,1.188,1.1852,1.1905,1.1907,1.1909,1.1934,1.1938,1.1942,0,0,0,0,0,1.185,1.1868,1.1861,1.1863,1.1869,1.1879,1.1879,1.1871,1.1859,1.1868,1.1865,1.1854,1.1877,1.1865,1.1868,1.1882,1.1905,1.1907,1.1909,1.1932,1.1938,1.1942,0,0,0,0,0,0,1.1874,1.1868,1.186,1.1878,1.1879,1.1875,1.1886,1.1876,1.1881,1.1879,1.1868,1.1868,1.1886,1.1885,1.1873,1.1906,1.1889,1.1892,1.1906,1.1911,1.1915,1.1915,1.1853,0,0,0,0,0,1.1882,1.1889,1.1883,1.19,1.1901,1.1893,1.1897,1.189,1.1891,1.1892,1.1889,1.1892,1.1899,1.1905,1.1911,1.1933,1.1934,1.1944,1.1948,1.1952,1.1955,1.1968,1.1973,1.1917,1.1917,1.1917,0,0,1.1897,1.1895,1.19,1.1905,1.1905,1.1914,1.1894,1.1904,1.1911,1.1893,1.1908,1.1907,1.1908,1.1928,1.1936,1.1928,1.197,1.1955,1.1957,1.1959,1.1971,1.1976,1.1981,1.1919,1.1919,1.1918,0,0,1.1931,1.1929,1.1943,1.1944,1.1943,1.1938,1.1942,1.1939,1.1937,1.1952,1.1939,1.1947,1.196,1.1962,1.1965,1.1999,1.199,1.2001,1.2024,1.2036,1.2041,1.2045,1.2059,1.2064,1.2004,1.2004,1.2004,0,1.1951,1.1964,1.1952,1.1964,1.1967,1.195,1.1965,1.1966,1.1968,1.1971,1.1961,1.1977,1.1977,1.1997,1.2006,1.2008,1.2013,1.2003,1.2041,1.2045,1.2048,1.2062,1.2067,1.2006,1.2006,1.2006,1.2005,0,1.1989,1.1998,1.201,1.2012,1.2016,1.2029,1.202,1.2026,1.2018,1.2014,1.203,1.2029,1.2036,1.2039,1.2032,1.2059,1.2054,1.2042,1.2026,1.2055,1.2068,1.2073,1.2008,1.2008,1.2007,1.2007,0,0,1.204,1.2035,1.204,1.2041,1.204,1.2047,1.2059,1.2065,1.2071,1.2073,1.2084,1.2095,1.2085,1.2088,1.2081,1.2092,1.2121,1.2079,1.2079,1.2089,1.2153,1.2163,1.2169,1.2114,1.2115,1.2116,1.2153,0,1.2074,1.2095,1.2085,1.2108,1.2117,1.2101,1.2112,1.2113,1.2109,1.2117,1.2113,1.2122,1.2106,1.2108,1.2118,1.2116,1.2134,1.2112,1.2127,1.2127,1.2129,1.2175,1.2186,1.2221,1.2158,1.2159,1.2159,0,1.2118,1.2121,1.2145,1.2142,1.2145,1.2155,1.216,1.2167,1.2168,1.2165,1.2168,1.2158,1.2172,1.2153,1.2172,1.2158,1.2163,1.2162,1.2163,1.2166,1.2147,1.2181,1.2232,1.2239,1.2166,1.2166,1.2165,0,1.2155,1.2165,1.2181,1.2182,1.2179,1.2187,1.2186,1.2186,1.219,1.2194,1.2197,1.2203,1.2207,1.2212,1.2205,1.2192,1.2226,1.2206,1.2225,1.2225,1.2235,1.2235,1.229,1.2234,1.2234,1.2234,1.2234,0,1.2196,1.2211,1.2198,1.2208,1.2225,1.2213,1.2231,1.2228,1.2228,1.2238,1.2223,1.2233,1.2222,1.2231,1.2225,1.2243,1.2244,1.2243,1.2242,1.2246,1.2246,1.225,1.2249,1.2235,1.2235,1.2235,1.2235,0,1.2242,1.2233,1.2249,1.2244,1.2243,1.2257,1.2253,1.2263,1.2257,1.227,1.2273,1.2265,1.2275,1.2268,1.2277,1.2273,1.2297,1.2291,1.2297,1.2297,1.2316,1.2316,1.2378,1.2386,1.2323,1.2324,1.2324,0,1.2269,1.2281,1.2277,1.2282,1.2282,1.2291,1.2295,1.2283,1.2289,1.229,1.23,1.2308,1.2315,1.2332,1.2328,1.2335,1.2331,1.2352,1.2332,1.2336,1.2334,1.2335,1.2336,1.2357,1.2358,1.2358,1.2359,0,1.232,1.2315,1.2321,1.2326,1.2332,1.2335,1.2338,1.2343,1.2331,1.2338,1.2347,1.2352,1.2362,1.2371,1.2377,1.2377,1.2367,1.2365,1.237,1.2375,1.2379,1.238,1.2311,1.2364,1.2364,1.2363,1.2363,1.2363,1.2359,1.2369,1.2368,1.2376,1.2376,1.2379,1.2388,1.2384,1.2391,1.2398,1.2391,1.2403,1.2404,1.2411,1.2412,1.2422,1.2414,1.242,1.2423,1.2425,1.2429,1.2375,1.2423,1.2423,1.2423,1.2422,1.2422,0,1.2411,1.241,1.2417,1.242,1.2427,1.2414,1.2416,1.2423,1.2434,1.2435,1.2441,1.2453,1.2461,1.2458,1.2466,1.2475,1.247,1.2478,1.2478,1.2479,1.2435,1.2431,1.2481,1.2481,1.2481,1.2481,1.2481,1.2481,1.244,1.2456,1.2451,1.2468,1.2466,1.2478,1.248,1.2483,1.2484,1.2497,1.2504,1.2501,1.2501,1.2509,1.2517,1.2516,1.252,1.253,1.2527,1.2487,1.2482,1.2476,1.2472,1.253,1.253,1.257,1.2571,1.2571]},{"header":{"parameterUnit":"m.s-1","parameterCategory":1,"la1":30.2991,"la2":30.254,"lo1":-89.0895,"lo2":-89.0444,"dy":0.0017,"dx":0.0017,"nx":28,"ny":28,"refTime":"2023-07-18T21:00:00:Z","depth":0,"parameterNumber":3,"parameterNumberName":"V-component_of_WINDS"},"data":[0,0,0,0,0,0,0,0,0,0,0,0,0,0,0,0,0,0,0,0,0,0,0,0,0,0,0,0,0,0,0,0,0,0,0,0,0,0,0,0,0,0,0,0,0,0,0,0,0,0,0,0,0,0,0,0,0,0,0.5226,0.5226,0,0.5151,0.515,0.5149,0.5118,0.5118,0.5119,0.5119,0.5038,0.5036,0.5033,0,0,0,0,0,0,0,0,0,0,0,0,0,0.534,0.5338,0.5226,0.5225,0.5225,0.5151,0.515,0.5149,0.5118,0.5118,0.5119,0.5119,0.5039,0.5036,0.5033,0,0,0,0,0,0,0,0,0,0,0,0,0,0.528,0.5337,0.5227,0.52,0.5197,0.5151,0.515,0.5149,0.5118,0.5118,0.5119,0.5119,0.504,0.5036,0.5033,0.5006,0,0,0.5022,0.5021,0,0,0,0,0,0,0,0,0.5284,0.5276,0.5205,0.5202,0.5199,0.5144,0.516,0.5101,0.5118,0.5148,0.5119,0.5119,0.5073,0.5067,0.5052,0.5002,0.4999,0.5022,0.502,0.5018,0.5017,0,0,0,0,0,0,0,0.5288,0.5279,0.5196,0.5204,0.52,0.5191,0.5183,0.5149,0.511,0.5145,0.5143,0.5135,0.5071,0.5055,0.505,0.4998,0.5022,0.5019,0.5017,0.5015,0.4921,0.4921,0,0,0,0,0,0,0.5297,0.5283,0.5199,0.5194,0.5243,0.5189,0.518,0.5161,0.511,0.5103,0.5135,0.5134,0.5061,0.5054,0.5047,0.5011,0.5018,0.5015,0.5013,0.4921,0.4921,0.492,0,0,0,0,0,0,0.5299,0.529,0.5202,0.5238,0.5226,0.5187,0.5166,0.516,0.5144,0.5102,0.5094,0.5126,0.5061,0.5052,0.5016,0.5008,0.5014,0.501,0.4922,0.4921,0.4921,0.4941,0,0,0,0,0,0,0.5303,0.5291,0.5281,0.5238,0.5224,0.5174,0.5166,0.5158,0.5138,0.5136,0.5092,0.5085,0.506,0.5022,0.5013,0.5003,0.5008,0.4922,0.4922,0.4921,0.4941,0.4941,0.4941,0,0,0,0,0,0.5307,0.5289,0.5281,0.5271,0.5212,0.5174,0.5166,0.5139,0.5138,0.5127,0.51,0.5086,0.5011,0.5018,0.5008,0.4998,0.4923,0.4922,0.4921,0.4941,0.4941,0.4941,0,0,0,0,0,0,0.5332,0.5283,0.5273,0.5241,0.5212,0.5169,0.5154,0.5141,0.511,0.5109,0.5077,0.5067,0.5034,0.5012,0.5022,0.4968,0.4965,0.4962,0.4984,0.4984,0.4984,0.499,0.5005,0,0,0,0,0,0.5334,0.5308,0.5267,0.5242,0.5228,0.5194,0.5176,0.5159,0.5126,0.5113,0.5084,0.5052,0.5021,0.5001,0.497,0.4937,0.4926,0.4925,0.4925,0.4926,0.4923,0.4903,0.4901,0.4917,0.4917,0.4917,0,0,0.5337,0.5307,0.5293,0.5247,0.5222,0.5195,0.5184,0.5156,0.5135,0.5109,0.5074,0.5051,0.5013,0.4979,0.4962,0.4959,0.4916,0.4924,0.4925,0.4922,0.4902,0.49,0.4899,0.4917,0.4917,0.4917,0,0,0.533,0.5305,0.5282,0.5257,0.522,0.5197,0.5192,0.515,0.5134,0.5099,0.5078,0.5052,0.5,0.4974,0.4953,0.4935,0.492,0.4926,0.4927,0.4907,0.4906,0.4905,0.4897,0.4895,0.4924,0.4924,0.4924,0,0.5338,0.5298,0.5271,0.5244,0.5224,0.52,0.5175,0.5152,0.5107,0.5092,0.509,0.5024,0.4997,0.4955,0.4951,0.4935,0.4927,0.4931,0.4909,0.4907,0.4905,0.4898,0.4895,0.4924,0.4924,0.4924,0.4924,0,0.531,0.5282,0.5268,0.5225,0.5203,0.5177,0.5146,0.5126,0.511,0.5087,0.505,0.5017,0.4979,0.4968,0.4951,0.4923,0.4923,0.4915,0.4912,0.4905,0.4898,0.4895,0.4926,0.4925,0.4925,0.4925,0,0,0.5316,0.5259,0.5254,0.5234,0.5191,0.5168,0.5141,0.5104,0.5088,0.5056,0.5032,0.4988,0.498,0.4957,0.4938,0.4921,0.4907,0.4915,0.4913,0.4914,0.4873,0.4879,0.4876,0.4898,0.4897,0.4896,0.4876,0,0.5302,0.5254,0.5229,0.519,0.5163,0.514,0.5116,0.5086,0.5063,0.5036,0.5011,0.498,0.4973,0.4958,0.4941,0.4913,0.4899,0.4914,0.4873,0.4872,0.4883,0.4872,0.4879,0.4861,0.4873,0.4873,0.4872,0,0.528,0.525,0.5209,0.5168,0.5156,0.5135,0.5099,0.5074,0.5039,0.5024,0.4998,0.4979,0.4947,0.4946,0.4902,0.4913,0.4895,0.4878,0.4877,0.4872,0.4872,0.4866,0.4855,0.4852,0.4867,0.4868,0.4868,0,0.5288,0.5237,0.5206,0.5189,0.5141,0.5127,0.5106,0.5071,0.5051,0.5019,0.5004,0.4969,0.4949,0.4922,0.4893,0.4895,0.4851,0.4848,0.4836,0.4837,0.4828,0.4829,0.4813,0.4817,0.4817,0.4817,0.4817,0,0.5275,0.525,0.5209,0.519,0.5161,0.5132,0.5104,0.5081,0.505,0.5025,0.5002,0.4979,0.4942,0.4914,0.4891,0.4857,0.4848,0.4834,0.4828,0.4836,0.4838,0.4823,0.4823,0.4816,0.4816,0.4817,0.4817,0,0.5279,0.525,0.5214,0.5172,0.516,0.5141,0.5104,0.5083,0.506,0.5028,0.5019,0.4981,0.4946,0.4915,0.4868,0.4853,0.4818,0.4811,0.483,0.4827,0.4817,0.4818,0.4791,0.4786,0.4794,0.4794,0.4794,0,0.5272,0.5253,0.5208,0.519,0.517,0.5141,0.512,0.509,0.5069,0.5027,0.5011,0.4975,0.4945,0.489,0.4857,0.4821,0.4813,0.4806,0.4807,0.4815,0.4812,0.4813,0.4811,0.4806,0.4806,0.4806,0.4806,0,0.5263,0.525,0.5221,0.5187,0.5163,0.5134,0.5105,0.5091,0.5055,0.5031,0.4996,0.4973,0.4925,0.4889,0.485,0.4826,0.481,0.4806,0.4801,0.4809,0.4821,0.4813,0.4831,0.4807,0.4807,0.4807,0.4807,0.4807,0.5261,0.5243,0.5209,0.5177,0.5152,0.5124,0.5103,0.5077,0.5047,0.5007,0.4991,0.4954,0.4918,0.4864,0.484,0.4811,0.4807,0.4801,0.4799,0.4798,0.4799,0.4826,0.4803,0.4803,0.4803,0.4803,0.4803,0,0.5251,0.5228,0.5199,0.5159,0.5133,0.5121,0.5087,0.5066,0.5035,0.5004,0.4974,0.4933,0.4898,0.4862,0.4825,0.4808,0.4799,0.4799,0.4799,0.4794,0.4804,0.4812,0.4806,0.4806,0.4806,0.4806,0.4806,0.4806,0.5243,0.5211,0.5193,0.5147,0.5124,0.5089,0.5071,0.5045,0.502,0.4975,0.4946,0.4923,0.489,0.4849,0.4816,0.4806,0.4793,0.4795,0.4783,0.4793,0.4793,0.4793,0.48,0.4792,0.4792,0.4775,0.4775,0.4775]}]]